{"data":{"norad_id":59433,"epoch":"2026-05-25T02:40:07.227264Z","epoch_age_seconds":61844,"freshness":"FRESH","line1":"1 59433U 24065N   26145.11119476 -.00000348  00000+0  35764-6 0  9995","line2":"2 59433  53.1602 288.5699 0000748 107.8934 252.2149 15.30195155120600","mean_motion":15.30195155,"eccentricity":7.48e-5,"inclination_deg":53.1602,"raan_deg":288.5699,"arg_perigee_deg":107.8934,"mean_anomaly_deg":252.2149,"bstar":3.5764e-7,"rev_number":12060,"period_min":94.105643668699,"perigee_km":474.7169039373,"apogee_km":475.74216757105,"semimajor_km":6853.3665357542,"source":"CELESTRAK","updated_at":"2026-05-25T13:38:18.946280Z"}}